Погода в Дмитровичах

Беларусь     53°58′49″N   29°06′41″E
темп.,
°C
ветер,
м/с
пор.,
м/с
влажн.,
%
обл.,
%
осадки,
мм/ч
давл.,
гПа
погр.,
м
11 апреля, вс
вс1100:00+7ю3127298 0.0 1021297
03:00+7ю31272100 0.0 1022406
06:00+6ю3107776 0.0 1023271
09:00+9ю486852 0.0 1024303
12:00+14ююз474810 0.0 1025921
15:00+17ююз564137 0.0 10251601
18:00+15ю364765 0.0 1025654
21:00+10ююв4116353 0.0 1027283
12 апреля, пн
пн1200:00+8ююв39735 0.0 1028200
03:00+6юв38764 0.0 1028167
06:00+5юв38795 0.0 1028144
09:00+9юв48600 0.0 1027386
12:00+14юв57400 0.0 10251282
15:00+16ююв46320 0.0 10231608
18:00+15ююв35370 0.0 10211343
21:00+9юв36610 0.0 102295
13 апреля, вт
вт1300:00+7юв398481 0.0 1022216
03:00+6ююв26950 0.0 1022129
06:00+5юв23932 0.0 102150
09:00+10ююв23650 0.0 1020260
12:00+16ююв23420 0.0 10191016
15:00+18ююз11335 0.0 10181526
18:00+17ссв01385 0.0 10171466
21:00+11с118648 0.0 101822
14 апреля, ср
ср1400:00+9ссз3690100 0.0 1018134
03:00+8с3694100 0.0 1017182
06:00+8с3894100 0.3 1017283
09:00+8с3895100 2.1 1016342
12:00+8ссв3796100 2.0 1016358
15:00+10св2492100 2.2 1016235
18:00+10с2392100 0.3 101681
21:00+8ссв369796 0.4 1017165
15 апреля, чт
чт1500:00+9св2398100 0.3 101786
03:00+8ссв3697100 0.6 1017200
06:00+7ссв369792 0.0 1017237
09:00+7ссв3594100 0.0 1017283
12:00+9ссв4587100 0.0 1018482
15:00+6с5891100 0.0 1018505
18:00+6с51192100 0.1 1018500
21:00+6ссв51394100 0.7 1018622